星链-34748 (STARLINK-34748)

导读 | 豆包AI

STARLINK-34748是美国SpaceX公司星链星座的成员,于2025年7月19日发射升空。星链计划旨在构建全球卫星互联网星座,为全球用户提供高速低延迟的宽带服务。STARLINK-34748加入后,进一步扩展了星链星座的覆盖范围与服务能力,推动全球网络基础设施建设。

Basic Information
目录编号:
64848
目录名称:
STARLINK-34748
国际标识:
2025-152G
轨道中心:
EARTH
卫星名称:
星链-34748
卫星全名:
星链-34748 (STARLINK-34748)
卫星状态:
在轨 (已飞行238 天)
发射日期:
2025-07-19 UTC
国别 :
美国 (US)
星等 :
--
Orbit Information
数据来源 国际轨道数据 AOE轨道数据
星历时间 2026-03-14T03:58:39+0800
19小时前
查看轨道信息
2026-03-13T03:00:00+0800
1天前
查看轨道信息
半长轴 6927.615km 6927.604km
偏心率 0.0001793 0.000241
轨道倾角 97.602° 97.603°
近地点辐角 68.855° 82.457°
升交点赤经 289.635° 288.609°
平近点角 291.287° 40.027°
近地点 548.235km 547.797km
远地点 550.721km 551.137km
周期 95.639分钟 95.639分钟
每日圈数 15.056609 15.056647
Detailed Information
固有亮度:
5
最大亮度:
2.5
卫星平台:
Starlink V1.0
覆盖范围:
全球
运营商:
太空探索技术公司
运营商所在国:
美国
制造商(研发单位):
太空探索技术公司
制造商所在国:
美国
使用方式:
暂无
Satellite Introduction
Starlink 计划是 SpaceX 推出的全球卫星互联网项目,通过发射低轨道卫星,为全球尤其是偏远地区提供高速、低延迟的互联网服务。自 2019 年起,Starlink 已部署数千颗卫星,旨在缩小全球数字鸿沟,推动互联网普及。该项目还为军事、航空等行业提供通信支持,带来广泛经济效益。
2D Orbit Map
3D Orbit Map
Orbit Altitude Analysis Chart
Orbit Inclination Analysis Chart
Orbit Comprehensive Analysis Chart
View Comprehensive Chart